This demonstration page uses our WeatherBlox Daily Observations layout. Learn more.

Left ArrowRight Arrow

38.88101, -77.10428

Hourly Observations for November 19, 2018

Temp ( °F °C ) Dew Point ( °F °C ) Humidity (%) Winds ( mph kmh ) Pressure ( in mb ) Visibility ( mi km ) Precip ( " mm )
12:52 am 00:52 Mostly Cloudy 44 6.7 40 4.4 85 85 S 6 9 30.18 1022 10 16.0934 0 0
1:52 am 01:52 Mostly Cloudy 43 6.1 39 3.9 86 86 S 8 13 30.16 1021 10 16.0934 0 0
2:52 am 02:52 Mostly Clear 42 5.6 38 3.3 85 85 S 6 9 30.14 1021 10 16.0934 0 0
3:52 am 03:52 Mostly Clear 42 5.6 37 2.8 82 82 SSW 6 9 30.13 1020 10 16.0934 0 0
4:52 am 04:52 Mostly Cloudy 40 4.4 37 2.8 89 89 SW 3 6 30.13 1020 10 16.0934 0 0
5:52 am 05:52 Mostly Cloudy 42 5.6 38 3.3 85 85 SSW 3 6 30.14 1021 10 16.0934 0 0
6:52 am 06:52 Mostly Cloudy 42 5.6 37 2.8 82 82 Calm 30.13 1020 10 16.0934 0 0
7:52 am 07:52 Mostly Cloudy 43 6.1 39 3.9 86 86 Calm 30.13 1020 9 14.48406 0 0
8:52 am 08:52 Mostly Cloudy 45 7.2 41 5 86 86 S 6 9 30.13 1020 9 14.48406 0 0
9:52 am 09:52 Mostly Cloudy 47 8.3 41 5 80 80 SSE 3 6 30.13 1020 10 16.0934 0 0
10:52 am 10:52 Mostly Cloudy 50 10 41 5 71 71 Calm 30.11 1020 10 16.0934 0 0
11:52 am 11:52 Cloudy 52 11.1 43 6.1 72 72 S 5 7 30.09 1019 10 16.0934 0 0
12:52 pm 12:52 Cloudy 55 12.8 43 6.1 64 64 S 7 11 30.05 1018 10 16.0934 0 0
1:52 pm 13:52 Cloudy 57 13.9 44 6.7 62 62 S 6 9 30.03 1017 10 16.0934 0 0
2:52 pm 14:52 Cloudy 59 15 43 6.1 56 56 S 5 7 30 1016 10 16.0934 0 0
3:52 pm 15:52 Mostly Cloudy 57 13.9 44 6.7 62 62 S 6 9 29.98 1015 10 16.0934 0 0
4:52 pm 16:52 Mostly Cloudy 58 14.4 42 5.6 56 56 SSW 5 7 29.98 1015 10 16.0934 0 0
5:52 pm 17:52 Mostly Cloudy 52 11.1 43 6.1 72 72 S 9 15 29.97 1015 10 16.0934 0 0
6:52 pm 18:52 Mostly Cloudy 52 11.1 44 6.7 75 75 S 6 9 29.96 1015 10 16.0934 0 0
7:52 pm 19:52 Mostly Cloudy 53 11.7 45 7.2 74 74 S 3 6 29.96 1015 10 16.0934 0 0
8:52 pm 20:52 Mostly Cloudy 51 10.6 44 6.7 77 77 S 8 13 29.95 1014 10 16.0934 0 0
9:52 pm 21:52 Mostly Cloudy 51 10.6 44 6.7 77 77 SSW 5 7 29.93 1014 10 16.0934 0 0
10:52 pm 22:52 Partly Cloudy 50 10 45 7.2 83 83 Calm 29.92 1013 10 16.0934 0 0
11:52 pm 23:52 Partly Cloudy 50 10 45 7.2 83 83 SW 3 6 29.9 1013 10 16.0934 0 0

Powered by AerisWeather